www.pogodaiklimat.ru

Погода и климат >> Архив погоды >> Мексика >> Culiacan


ПОГОДА в Culiacan

  • Прогноз погоды в Culiacan
  • Монитор погоды в Culiacan
  • Климат города

АРХИВ ПОГОДЫ в Culiacan

Время (UTC), дата Ветер
(напр.,м/с)
 
Видим.   Явления Облачность Т
(С)
Тd
(С)
f
(%)
Тe
(С)
Тes
(С)
Комфортность P
(гПа)
Po
(гПа)
Тmin
(С)
Tmax
(С)
R
(мм)
R24
(мм)
S
(см)
03 14.10 С 1 16 км ясно +26.0 +21.5 76 +33 +33 очень
душно
1011.9 1007.5
06 14.10 СЗ 1 16 км ясно +24.2 +22.2 89 +31 +31 очень
душно
1012.2 1007.8 +21.8 +33.8
09 14.10 СВ 1 16 км ясно +23.4 +22.3 94 +32 +32 очень
душно
1011.5 1007.1
12 14.10 штиль 0 16 км ясно +22.0 +20.6 92 +28 +28 душно 1011.7 1007.3 +21.4 +33.8
15 14.10 штиль 0 16 км 5/0 2000 м
[As op]
+23.2 +20.0 82 +30 +32 очень
душно
1013.5 1009.0
18 14.10 СЗ 1 16 км ясно +31.0 +19.9 52 +37 +53 опасность
солнечного
удара
1012.9 1008.4 +21.0 +32.0
21 14.10 Ю 2 16 км 3/0 2000 м
[As op]
+34.4 +18.6 39 +39 +47 очень
душно
1010.6 1006.2
00 15.10 З 2 16 км ясно +31.6 +17.5 43 +36 +36 очень
душно
1010.4 1006.0 +21.0 +35.2
06 15.10 В 1 16 км ясно +24.0 +21.4 85 +30 +30 очень
душно
1013.0 1008.6 +21.0 +35.2
09 15.10 В 1 16 км ясно +23.2 +21.2 89 +31 +31 очень
душно
1011.8 1007.4
12 15.10 В 1 16 км ясно +22.4 +21.0 92 +29 +29 очень
душно
1011.2 1006.8 +21.4 +33.8
15 15.10 ЮЗ 1 16 км 4/0 2000 м
[As trans]
+26.0 +23.1 84 +35 +37 очень
душно
1013.9 1009.4
18 15.10 З 1 16 км 1/0 2000 м
[As trans]
+31.0 +18.5 47 +36 +50 очень
душно
1013.5 1009.0 +21.4 +31.1
21 15.10 Ю 1 16 км 6/0 2000 м
[As op]
+32.5 +15.1 35 +35 +41 душно 1011.1 1006.7
00 16.10 ЮЗ 1 16 км 3/0 2000 м
[As trans]
+32.0 +15.2 36 +34 +35 душно 1010.0 1005.6 +21.4 +33.9
03 16.10 З 1 16 км 3/0 2000 м
[As trans]
+26.6 +20.1 68 +33 +33 очень
душно
1011.5 1007.1
06 16.10 Ю 1 16 км 4/0
[As trans]
+24.5 +22.4 88 +32 +32 очень
душно
1012.3 1007.9 +33.9
09 16.10 Ю 1 16 км 4/0 2000 м
[As trans]
+21.8 +21.4 98 +28 +28 душно 1012.5 1008.1
12 16.10 ЮВ 1 16 км 4/0 2000 м
[As trans]
+21.4 +21.4 100 +27 +27 душно 1012.6 1008.2 +21.3 +33.9
15 16.10 штиль 0 16 км ясно +24.6 +23.8 95 +33 +37 очень
душно
1013.5 1009.0
18 16.10 СЗ 2 16 км ясно +31.0 +24.2 67 +43 +56 опасность
перегрева
1012.7 1008.2 +20.0 +31.8
21 16.10 ЮЗ 2 16 км ясно +34.0 +21.5 48 +42 +53 опасность
перегрева
1011.1 1006.7
00 17.10 СЗ 2 16 км ясно +32.2 +15.3 36 +34 +35 душно 1011.2 1006.3 +20.0 +34.8
03 17.10 ЮЗ 2 16 км ясно +27.6 +19.5 61 +33 +33 очень
душно
1011.3 1007.0
06 17.10 Ю 2 16 км ясно +25.0 +18.8 68 +30 +30 душно 1012.4 1008.0 +34.8
12 17.10 штиль 0 16 км ясно +22.4 +18.9 81 +28 +28 душно 1012.8 1008.4 +21.8 +34.8
15 17.10 штиль 0 16 км 5/0 2000 м
[As op]
+24.2 +20.5 80 +30 +32 очень
душно
1013.7 1009.2
18 17.10 В 1 16 км 5/0 2000 м
[As op]
+30.5 +21.4 58 +38 +48 очень
душно
1013.6 1009.1 +21.8 +30.8
21 17.10 ЮВ 1 16 км 5/0 2000 м
[As op]
+33.6 +18.3 40 +38 +46 очень
душно
1011.8 1007.4
00 18.10 З 2 16 км 5/0 2000 м
[Ac trans]
+31.5 +18.1 45 +36 +37 очень
душно
1011.0 1006.6 +21.8 +34.0
03 18.10 С 1 16 км 5/0 2000 м
[As op]
+26.6 +17.4 57 +31 +31 душно 1013.0 1008.6
06 18.10 н/о +24.4 +19.2 73 -2 -11 1013.3 1008.9 +21.8 +34.0
09 18.10 штиль 0 16 км ясно +23.6 +20.0 80 +29 +29 душно 1012.3 1007.9
12 18.10 С 1 16 км ясно +22.8 +19.9 84 +29 +29 очень
душно
1012.4 1008.0 +22.4 +34.8
15 18.10 В 1 16 км 3/0 1500 м
[Ac und]
+26.8 +23.6 83 +37 +39 очень
душно
1013.2 1008.7
18 18.10 ЮЗ 1 16 км 3/0
[Ac und]
+31.8 +19.8 49 +38 +50 очень
душно
1013.1 1008.7 +21.6 +32.4
21 18.10 СЗ 1 16 км ясно +35.0 +19.7 41 +41 +53 опасность
перегрева
1010.9 1006.5
03 19.10 ЮВ 1 16 км ясно +28.6 +22.5 70 +38 +38 очень
душно
1012.2 1007.9
06 19.10 Ю 1 16 км ясно +27.2 +25.2 89 +39 +39 очень
душно
1012.4 1008.1 +21.6 +36.2
12 19.10 ЮЗ 1 16 км ясно +24.2 +22.2 89 +31 +31 очень
душно
1011.5 1007.1 +22.6 +36.2
15 19.10 ЮВ 1 16 км ясно +25.2 +21.5 80 +32 +35 очень
душно
1013.3 1008.9
18 19.10 Ю 1 16 км ясно +29.9 +19.4 53 +36 +51 опасность
солнечного
удара
1013.3 1008.9 +21.6 +32.6
21 19.10 Ю 1 16 км ясно +31.4 +16.7 41 +35 +47 очень
душно
1012.3 1007.9
00 20.10 Ю 1 16 км ясно +34.0 +14.2 30 +35 +36 очень
жарко
1010.4 1006.0 +22.6 +35.2
03 20.10 штиль 0 16 км ясно +29.1 +20.4 59 +36 +36 очень
душно
1013.0 1008.6
06 20.10 штиль 0 16 км ясно +27.2 +23.6 81 +37 +37 очень
душно
1012.8 1008.4 +35.2
09 20.10 штиль 0 16 км ясно +25.2 +22.1 83 +33 +33 очень
душно
1011.4 1007.0
15 20.10 штиль 0 16 км ясно +26.2 +24.3 89 +36 +40 очень
душно
1012.1 1007.7
18 20.10 штиль 0 16 км ясно +33.0 +23.5 58 +44 +61 опасность
перегрева
1012.3 1007.9 +23.8 +34.2
21 20.10 штиль 0 16 км ясно +35.2 +22.6 48 +44 +59 опасность
перегрева
1010.5 1006.2
00 21.10 штиль 0 16 км ясно +34.2 +23.0 52 +44 +45 опасность
перегрева
1010.4 1006.1 +23.8 +36.6

 

Местоположение метеостанции Culiacan (Мексика): широта 24.80 долгота -107.40 высота над уровнем моря 39 м.

В архиве по умолчанию представлена погода в Culiacan за последнюю неделю. Архивные данные за месяц целиком и за предыдущие месяцы, начиная с января 2011 года, Вы можете получить, выбрав интересующий диапазон дат из раскрывающегося списка и нажав кнопку "Ввод!".


*Определитесь, кто Вы:
робот инопланетянин человек

Внимание! Время в таблицах - всемирное. Для получения местного времени необходимо прибавить поправку, которая в Culiacan равна -7 ч.

Смотрите также архив погоды в соседних городах и на ближайших метеорологических станциях:

Погода в Tepehuanes (Мексика) (180 км)
Погода в Mazatlan (Мексика) (205 км)
Погода в Choix (Мексика) (229 км)
Погода в Durango (Мексика) (296 км)
Погода в Hidalgo del Parral (Мексика) (298 км)
Погода в La Paz (Мексика) (302 км)
Погода в Ciudad Obregon (Мексика) (377 км)
Погода в Sombrerete (Мексика) (407 км)
Погода в Torreon (Мексика) (411 км)
Погода в Loreto (Мексика) (415 км)

Пояснения к столбцам:

Ветер - указаны скорость ветра в м/с - средняя за 10 мин, порывы в срок и между сроками (в фигурных скобках) и направление, откуда дует ветер: С - северный, СВ - северо-восточный, В - восточный, ЮВ - юго-восточный, Ю - южный, ЮЗ - юго-западный, З - западный, СЗ - северо-западный.
Видимость - горизонтальная дальность видимости в метрах или километрах. При видимости от 1 до 10 км при отсутствии осадков обычно наблюдается дымка, при ухудшении видимости до 1 км и менее - туман. В сухую погоду видимость может ухудшаться дымом, пылью или мглою.
Явления - указаны атмосферные явления, наблюдавшиеся в срок или в последний час перед сроком; фигурными скобками обозначены явления, наблюдавшиеся между сроками (за 1-3 часа до срока); квадратными скобками обозначены град или гололедные отложения с указанием их диаметра в мм.
Облачность - указаны через наклонную черту общая и нижняя облачность в баллах и высота нижней границы облаков в метрах; квадратными скобками обозначены формы облаков: Ci - перистые, Cs - перисто-слоистые, Cc - перисто-кучевые, Ac - высококучевые, As - высокослоистые, Sc - слоисто-кучевые, Ns - слоисто-дождевые, Cu - кучевые, Cb - кучево-дождевые. Подробнее классификацию облаков см. в Атласе облаков (PDF).
T - Температура воздуха - температура, измеренная на высоте 2 м над землей.
Td - Температура точки росы - температура, при понижении до которой содержащийся в воздухе водяной пар достигнет насыщения.
f - Относительная влажность воздуха - влажноcть воздуха, измеренная на высоте 2 м над землей.
Te - Эффективная температура - температура, которую ощущает одетый по сезону человек в тени. Характеристика душности погоды. При расчете учитывается влияние влажности воздуха и скорости ветра на теплоощущения человека.
Tes - Эффективная температура на солнце - температура, которую ощущает человек, с поправкой на солнечный нагрев. Характеристика знойности погоды. Зависит от высоты солнца над горизонтом, облачности и скорости ветра. Ночью, в пасмурную погоду, а также при ветре 12 м/с и более поправка равна нулю.
P - Атмосферное давление - приведенное к уровню моря атмосферное давление.
Po - Атмосферное давление - измеренное на уровне метеостанции атмосферное давление.
Tmin - Минимальная температура - минимум температуры воздуха на высоте 2 м над землей.
Tmax - Максимальная температура - максимум температуры воздуха на высоте 2 м над землей.
R - Количество осадков - Количество выпавших осадков за период времени, мм. При наведении курсора мыши на число - период времени, за который выпало указанное количество осадков.
R24 - Количество осадков - Количество выпавших осадков за 24 часа, мм.
S - Снежный покров - Высота снежного покрова, см. При наведении курсора мыши на число - состояние снежного покрова и степень покрытия местности в баллах.